Theta_e
312 312 312 312 312 312 312 312 312 312 312 311 311 311 311 311 313 315 318 322 323 323 323 322 321 320 318 318 320 322 323 324 327 328 328 327 326 326 326 325 325 324 324 324 323 323 322 322 321 320 320 320 321 319 315 313 312 305 299 299 299 298 297 296 295 296 296 297 297 295 294 293 293 293 293 293 293 293 293 293 292 292 292 292 292
312 312 311 311 311 311 311 311 311 311 311 312 311 312 312 312 313 315 318 321 323 324 324 323 322 321 321 321 322 324 325 326 327 327 328 327 326 326 326 327 326 325 325 325 324 323 322 321 320 320 319 319 319 316 313 314 312 303 298 298 298 297 297 295 295 295 294 295 295 294 293 293 293 293 293 293 293 293 293 293 292 292 292 292 291
312 312 312 312 312 311 311 311 311 311 311 311 311 311 311 312 313 314 315 317 319 320 320 321 321 320 321 321 322 324 325 326 327 327 327 327 327 326 327 328 326 324 324 324 324 322 321 320 320 319 318 318 317 315 313 313 310 302 298 298 298 297 296 295 295 294 294 294 294 294 293 293 293 293 293 293 293 293 293 292 292 292 292 291 291
312 311 311 312 312 312 312 312 312 312 312 311 311 311 311 311 311 312 312 313 314 314 316 318 319 319 320 321 322 323 324 325 326 326 327 328 327 325 326 327 325 323 323 324 323 323 322 320 319 317 317 318 317 315 314 311 305 300 297 298 298 296 296 295 294 294 294 294 294 294 293 293 293 293 293 293 293 293 292 292 292 292 291 291 290
311 311 311 311 311 312 312 312 312 312 312 312 312 312 311 311 310 310 310 311 311 312 314 316 317 319 321 321 322 323 324 324 325 325 326 326 325 326 327 327 326 324 324 322 321 322 321 320 318 318 318 318 317 316 314 308 301 298 298 297 297 296 295 295 294 294 294 294 293 293 293 293 293 293 293 293 292 292 292 292 292 291 291 290 290
311 311 311 311 311 311 311 311 311 312 312 312 312 312 312 311 311 310 310 310 310 311 313 315 317 319 320 322 322 323 324 324 324 324 323 323 324 327 326 325 326 325 322 320 320 320 320 319 319 318 318 317 316 315 312 305 299 298 298 297 297 296 295 295 294 294 294 293 293 293 293 293 293 293 293 292 292 292 292 292 291 291 291 290 290
311 311 311 311 311 311 311 311 311 310 311 312 312 313 312 312 311 310 310 310 310 310 311 314 316 318 320 321 323 323 323 324 325 325 324 324 326 326 324 323 325 323 321 319 319 319 319 319 319 318 316 314 314 313 310 303 299 298 297 296 296 295 295 295 295 294 294 293 293 293 293 293 292 292 292 292 292 292 292 291 291 291 290 290 290
312 312 312 312 311 311 311 311 311 311 310 311 312 312 313 312 312 311 310 310 310 310 310 312 315 318 320 321 322 323 324 324 324 325 326 326 326 324 322 324 324 322 321 320 320 320 320 319 319 318 314 312 312 311 306 301 298 297 297 296 296 295 295 295 295 294 293 293 293 293 292 292 292 292 292 292 292 291 291 291 291 290 290 290 289
312 312 312 312 312 311 311 311 311 311 310 311 311 312 313 312 312 311 310 310 310 310 310 310 313 316 319 320 322 322 323 323 322 322 324 324 323 321 321 324 324 322 321 320 319 319 318 318 318 316 312 311 311 308 302 298 297 296 296 296 296 295 295 295 295 294 293 293 293 292 292 293 293 293 292 291 291 291 291 291 290 290 290 289 289
312 312 312 312 312 311 311 311 311 311 311 311 311 312 313 313 312 312 311 310 309 309 309 309 310 313 316 318 319 321 322 322 321 321 323 323 322 321 322 323 323 322 321 319 318 318 318 317 315 312 310 310 308 303 298 296 295 295 296 296 295 295 295 295 294 293 293 293 292 293 294 296 294 293 292 291 291 291 290 290 290 289 289 289 288
312 312 312 311 311 311 311 311 311 311 311 311 311 312 313 313 313 312 311 311 309 309 309 308 308 311 314 315 315 317 321 321 320 320 321 322 322 322 323 322 322 322 320 318 317 317 317 316 312 310 310 309 305 299 296 296 295 295 295 295 295 295 294 295 294 293 293 293 293 295 297 296 293 292 292 291 291 290 290 290 289 289 289 289 288
312 311 311 311 311 311 311 311 311 311 310 310 311 312 313 313 313 312 312 311 310 308 308 308 309 310 312 314 314 315 317 319 320 321 322 322 322 322 322 321 321 321 320 318 317 317 316 314 310 310 310 307 301 298 296 295 295 295 295 295 295 294 294 294 294 293 293 293 295 297 296 294 292 292 292 291 290 290 289 289 289 289 289 289 289
311 311 311 311 311 311 311 311 311 310 310 310 311 312 312 313 312 312 312 311 310 309 308 310 312 312 312 314 316 316 316 318 320 321 322 322 322 321 320 320 320 320 318 317 317 316 314 312 310 309 308 303 299 297 296 295 295 295 295 295 294 294 294 294 294 293 293 294 296 296 294 293 293 293 292 291 290 289 289 289 288 288 288 288 288
311 311 311 311 311 311 311 311 311 311 310 310 310 311 311 312 312 312 312 311 310 309 309 311 314 315 316 316 318 319 319 319 320 320 321 321 321 320 319 319 318 317 316 316 316 315 312 310 309 309 306 301 298 297 296 295 295 295 295 295 294 293 293 293 293 293 294 295 295 294 294 295 294 292 291 290 290 289 289 288 288 288 288 288 288
311 311 311 311 311 311 311 310 310 310 310 310 310 310 311 311 312 312 312 312 311 310 310 310 313 315 317 317 317 318 319 319 320 320 320 321 320 319 318 318 317 316 316 315 316 315 311 309 308 306 303 300 298 297 296 295 295 294 294 294 294 293 293 292 292 293 294 294 294 294 296 296 293 291 290 290 289 289 288 288 288 288 287 287 287
311 311 311 311 311 311 311 311 310 310 310 310 310 310 310 310 311 311 312 312 312 311 310 309 311 313 315 316 316 316 316 317 317 318 319 319 319 318 318 318 316 315 315 315 315 314 310 307 306 302 300 298 297 296 295 294 294 294 294 294 293 292 292 292 292 293 294 294 294 295 296 295 292 290 290 290 289 288 288 287 287 287 287 287 287
311 311 311 310 310 310 310 310 310 310 310 310 310 310 310 310 310 311 311 311 311 311 310 309 310 311 313 315 316 315 315 315 317 318 318 318 318 318 317 316 315 314 314 314 315 314 310 307 303 300 297 297 295 295 294 294 293 293 293 293 292 292 292 291 292 294 294 294 295 296 295 292 291 291 291 289 288 288 288 287 287 287 286 286 286
311 311 310 310 310 310 310 310 310 310 310 310 310 310 310 310 310 310 311 311 311 311 310 310 310 310 310 311 313 314 315 316 316 316 316 315 315 315 314 313 313 312 311 312 313 313 311 307 303 299 296 295 294 294 293 293 293 293 293 293 292 292 292 291 292 293 294 294 295 295 293 291 292 292 291 289 288 288 287 287 286 286 286 286 286
311 310 310 310 310 310 310 310 310 311 310 310 310 310 310 310 310 310 310 310 310 310 310 310 309 309 309 310 310 311 313 313 313 313 313 313 313 312 311 311 310 310 310 311 312 312 311 309 304 299 295 294 294 293 293 292 292 292 292 292 292 292 291 291 292 293 294 295 295 293 292 292 293 292 290 288 288 288 287 286 286 286 286 285 285
310 310 310 310 310 310 311 310 310 310 310 310 310 310 310 309 309 309 310 310 310 310 310 310 309 309 309 310 310 310 311 311 311 311 311 311 311 310 309 308 308 309 310 310 310 311 311 310 306 300 295 293 293 292 292 292 292 292 292 291 291 291 291 291 292 293 294 295 294 292 292 293 293 292 290 289 288 287 287 286 286 285 285 285 284
310 310 310 310 310 310 310 310 310 310 310 310 309 309 309 309 309 309 309 309 310 310 310 310 310 309 309 309 308 308 309 309 309 309 309 309 308 307 307 307 307 308 308 307 308 309 309 309 307 301 295 293 293 292 292 292 291 291 291 291 291 291 290 291 292 293 294 294 293 293 294 294 294 293 291 289 288 287 286 286 285 285 285 284 284
310 310 310 310 310 310 310 310 310 310 310 310 309 309 309 309 309 309 309 309 309 309 309 309 309 309 309 309 308 308 308 308 308 308 307 306 305 305 306 306 306 306 305 305 305 306 306 307 306 301 295 292 292 292 292 292 291 291 291 291 290 290 290 291 292 293 294 294 294 294 295 296 296 294 291 288 287 286 286 286 285 285 284 284 283
310 310 310 310 310 310 310 309 310 310 309 310 309 309 309 309 309 309 309 309 309 309 309 309 309 309 309 309 308 308 308 308 308 307 306 304 304 304 304 304 304 304 304 303 303 303 303 304 304 300 295 292 292 292 291 291 291 291 291 290 290 290 289 290 292 294 294 294 294 295 296 297 297 294 290 287 286 286 286 285 285 285 284 284 283
310 310 310 310 309 309 309 309 309 309 309 309 309 309 309 309 309 308 308 308 308 308 308 308 308 308 308 308 308 308 308 307 307 307 306 305 304 303 303 302 303 303 303 302 302 302 301 301 301 298 294 291 291 291 290 290 290 290 290 290 290 289 289 290 292 293 293 293 294 295 297 297 295 291 287 286 286 286 286 285 285 284 284 283 283
310 309 309 309 309 309 309 309 309 309 309 309 309 309 308 308 308 308 308 308 308 308 308 308 308 307 307 307 307 307 307 307 307 307 306 306 305 305 304 303 303 302 302 302 301 301 300 300 299 297 292 290 290 290 289 289 289 289 289 289 289 289 289 289 291 292 293 293 294 295 297 296 291 287 286 287 287 286 285 285 284 284 284 283 283
309 309 309 309 309 309 309 309 309 309 309 309 308 308 308 308 308 308 308 308 308 308 308 308 308 308 308 308 307 307 307 307 307 306 306 306 306 305 305 304 303 303 302 302 302 301 300 299 299 296 292 289 289 289 289 289 289 288 289 289 289 289 289 289 290 291 292 293 294 295 295 292 288 286 287 288 287 286 285 285 284 284 283 283 283
309 309 309 309 309 309 309 309 309 309 309 309 308 308 308 308 308 308 308 308 308 308 308 308 308 308 308 308 307 307 307 307 306 306 306 306 305 305 305 304 303 303 302 302 301 300 299 298 297 295 292 290 289 289 288 288 288 288 288 288 288 288 288 288 289 291 292 292 293 294 293 290 287 287 288 288 288 286 285 284 284 284 283 283 283
309 309 309 309 309 309 309 308 308 309 308 308 308 308 308 308 308 308 308 308 308 308 308 308 308 308 308 307 307 307 307 307 306 306 305 305 305 304 304 303 303 302 301 300 299 299 298 297 295 293 291 290 289 289 289 289 288 288 288 288 288 288 288 288 289 290 291 292 293 294 293 291 289 288 288 288 288 286 285 284 284 284 284 284 283
309 309 309 309 309 308 308 308 308 308 308 309 308 308 308 308 308 308 308 308 308 308 307 307 307 307 307 306 306 306 306 306 305 305 305 304 304 303 303 302 301 301 300 299 298 297 296 295 293 292 291 290 289 289 289 289 288 288 287 287 287 287 287 287 288 289 290 292 293 294 294 292 289 288 288 288 287 286 285 284 284 284 284 284 284
309 309 309 309 308 308 308 308 308 308 308 308 308 308 308 308 308 308 308 307 307 307 307 306 306 306 306 305 305 305 304 304 304 304 304 304 303 302 302 301 300 299 298 297 296 295 295 294 293 292 291 290 289 289 288 288 287 287 287 287 287 287 287 287 288 288 290 291 293 294 293 291 289 288 288 288 287 286 285 284 284 284 284 284 284
309 309 308 308 308 308 308 308 308 308 308 308 308 308 308 308 307 307 307 307 306 306 306 305 305 305 305 304 304 303 303 303 303 303 303 303 302 301 301 300 298 298 297 296 295 295 294 294 293 292 291 290 289 288 288 287 287 286 286 286 286 286 287 287 287 287 288 290 292 292 291 289 288 288 287 287 286 285 284 284 284 284 284 284 283
308 308 308 308 308 308 308 308 308 308 308 307 308 307 307 307 307 307 306 306 305 305 305 304 304 304 303 303 303 303 302 302 302 302 301 301 301 300 299 298 298 297 295 294 294 294 294 293 292 291 290 289 289 288 287 287 286 286 286 286 286 286 286 286 286 287 287 288 290 291 290 288 287 286 285 285 285 284 283 283 284 284 284 284 283
308 308 307 307 307 307 307 307 307 307 307 307 307 307 307 306 306 306 305 305 305 304 304 304 303 303 303 302 302 302 302 301 301 301 301 300 299 299 298 297 297 296 295 294 294 294 294 293 292 291 290 289 289 288 287 287 286 286 285 285 285 285 285 285 285 286 286 287 288 290 290 288 287 286 285 284 283 283 282 283 283 284 284 284 283
307 307 307 307 307 307 307 307 307 307 306 306 306 306 306 305 305 305 304 304 303 303 303 302 302 302 301 301 301 300 300 300 300 300 299 299 298 298 297 297 296 296 295 295 295 295 294 293 292 291 290 289 288 287 287 286 286 286 286 285 285 285 285 285 285 285 285 286 287 289 290 289 288 287 286 284 283 282 282 283 283 284 284 283 283
307 307 306 306 306 306 306 306 306 306 306 305 305 305 304 304 303 303 302 302 301 301 300 300 300 299 299 298 298 298 298 298 298 298 298 297 297 297 296 296 296 295 294 294 294 293 293 292 291 290 289 288 287 286 286 286 285 285 285 285 285 285 285 285 284 284 284 285 285 287 289 289 288 287 286 285 284 283 283 283 283 284 284 283 282
306 306 306 306 306 306 306 305 305 305 304 304 303 302 302 301 300 300 299 299 298 298 298 297 297 297 296 296 296 295 295 295 295 295 295 295 295 295 295 295 294 294 293 292 292 291 290 290 290 289 288 287 286 286 285 285 285 285 285 285 284 284 284 284 284 284 284 284 285 286 288 288 287 286 286 285 284 283 283 283 283 283 283 282 282
305 305 305 305 305 304 304 303 302 302 301 300 300 299 298 298 297 297 297 296 296 295 295 295 295 295 295 295 294 294 294 294 294 293 293 293 294 294 294 294 293 293 293 292 291 290 290 289 288 287 286 286 285 285 284 284 284 284 284 284 284 284 284 284 284 284 284 284 284 285 286 287 287 286 285 285 284 284 283 283 282 282 282 282 281
304 304 303 302 302 301 300 299 299 298 297 297 296 296 296 295 295 295 295 294 294 294 294 294 294 293 293 293 293 293 292 292 292 292 291 291 291 291 291 291 291 291 291 291 291 290 290 289 288 287 286 285 285 284 284 283 283 283 283 283 283 283 283 283 283 283 283 283 283 284 285 286 287 286 285 285 285 284 283 283 282 282 282 282 281
301 300 299 299 298 297 297 296 296 295 295 295 295 295 294 294 294 294 294 293 293 293 292 292 292 291 291 291 291 290 290 290 290 289 289 289 288 288 288 288 288 288 288 289 289 289 289 288 288 287 286 285 285 284 284 283 283 282 282 282 282 283 283 283 283 283 283 283 283 283 283 284 286 286 285 285 285 284 284 283 282 282 282 281 281
297 297 296 296 296 296 295 295 295 295 294 294 294 294 293 293 293 293 292 292 291 291 290 290 289 289 289 288 288 288 288 288 287 287 287 287 287 287 286 286 286 286 286 286 286 286 287 287 287 287 286 286 285 284 284 283 283 282 282 282 282 282 282 282 282 282 282 282 283 283 283 284 285 285 284 284 284 284 284 283 282 282 281 281 281
295 295 295 295 295 295 294 294 294 293 293 293 293 292 292 291 291 290 290 290 289 289 288 288 288 287 287 287 287 287 287 286 286 286 286 286 286 286 286 286 285 285 285 285 285 285 285 286 286 286 286 286 285 285 284 283 283 282 281 281 281 281 281 281 281 282 282 282 282 282 283 283 283 283 283 284 283 283 282 282 281 281 280 280 280
294 294 294 294 294 293 293 293 292 292 292 291 291 290 290 289 289 289 288 288 288 287 287 287 287 286 286 286 286 286 286 286 286 285 285 285 285 285 285 285 285 285 285 284 284 284 284 285 285 285 285 285 285 284 284 283 283 282 281 280 280 280 279 279 279 280 280 280 280 281 281 282 282 282 282 282 282 281 281 280 280 280 280 279 279
293 293 293 293 292 292 292 291 291 290 290 289 289 289 288 288 288 288 287 287 287 287 286 286 286 286 286 286 285 285 285 285 285 285 285 285 285 285 285 285 285 285 284 284 284 284 284 284 284 284 284 284 284 284 283 283 282 281 280 279 279 279 278 278 278 278 278 278 278 279 279 280 280 280 281 281 280 280 280 279 279 279 279 279 279
292 292 292 291 291 290 290 289 289 289 288 288 288 288 287 287 287 287 287 286 286 286 286 286 285 285 285 285 285 285 285 285 285 285 285 285 285 285 285 285 285 284 284 284 284 284 284 283 283 283 283 283 283 283 282 282 281 281 280 279 278 278 278 277 277 277 277 277 277 277 277 278 278 279 279 279 279 279 279 278 278 278 278 278 278
290 290 290 290 289 289 289 288 288 288 288 287 287 287 287 287 286 286 286 286 286 285 285 285 285 285 285 285 285 285 285 285 285 285 285 285 285 285 285 284 284 284 284 284 283 283 283 283 283 283 283 282 282 282 281 281 280 280 279 278 277 277 277 277 276 276 275 275 275 275 275 276 276 277 278 278 278 278 278 278 277 277 278 278 278
289 289 289 289 288 288 288 288 287 287 287 287 287 286 286 286 286 286 285 285 285 285 285 285 285 285 285 285 285 285 285 285 285 285 285 285 285 285 284 284 284 284 284 283 283 283 282 282 282 282 282 282 281 281 280 280 280 279 279 278 277 277 276 275 275 275 274 274 274 274 274 274 275 276 276 276 277 277 277 277 276 276 277 277 278
288 288 288 288 288 288 287 287 287 287 286 286 286 286 286 286 285 285 285 285 285 285 285 285 285 285 285 285 285 285 285 285 285 285 285 284 284 284 284 284 284 283 283 283 282 282 282 281 281 281 281 281 280 280 280 279 279 279 278 278 277 276 275 274 274 273 273 274 274 274 273 273 274 274 275 275 276 276 276 276 275 275 276 276 277
288 288 287 287 287 287 287 286 286 286 286 286 286 285 285 285 285 285 285 285 285 285 285 285 285 285 284 285 285 285 285 285 284 284 284 284 284 283 283 283 283 282 282 282 281 281 281 280 280 280 279 279 279 279 279 278 278 278 277 277 276 275 274 273 273 272 272 272 273 273 273 273 273 273 274 274 275 275 275 275 275 275 275 276 276
287 287 287 286 286 286 286 286 286 286 285 285 285 285 285 285 285 285 285 285 285 285 285 284 284 284 284 284 284 284 284 284 284 284 283 283 283 283 282 282 282 282 281 281 280 280 280 279 279 278 278 278 278 278 277 277 277 277 277 276 276 275 274 273 273 272 272 272 272 273 272 272 272 273 273 274 274 274 274 274 274 274 275 275 276
286 286 286 286 286 286 286 285 285 285 285 285 285 285 285 285 285 285 285 285 284 284 284 284 284 284 284 284 284 284 284 283 283 283 282 282 282 282 281 281 281 280 280 280 279 279 278 278 278 277 277 277 276 276 276 276 276 276 275 275 275 274 274 273 273 273 272 272 272 272 272 272 272 273 273 273 273 273 273 273 273 274 274 275 275
286 286 286 286 285 285 285 285 285 285 285 285 285 285 285 285 285 285 284 284 284 284 284 284 284 284 284 284 283 283 283 282 282 282 281 281 281 280 280 280 279 279 279 278 278 277 277 277 276 276 276 275 275 275 275 275 275 275 275 274 274 274 274 274 273 273 273 273 272 272 272 272 272 273 273 272 271 271 271 272 272 273 274 274 275
Wind_Speed
16 16 16 16 16 16 16 17 18 19 21 23 26 27 29 30 32 33 33 33 33 34 34 35 34 33 30 26 24 25 27 29 31 32 33 34 34 34 34 34 36 37 36 37 38 38 34 32 32 33 34 35 35 32 28 27 29 31 31 30 28 27 25 25 25 23 22 20 19 19 18 16 15 14 13 13 13 14 14 14 15 17 18 20 20
12 13 13 13 14 14 15 16 17 19 20 22 24 26 27 29 29 31 31 31 30 31 33 34 34 32 29 27 26 26 27 28 30 32 34 34 34 34 34 34 35 35 35 36 36 34 32 33 33 32 33 35 34 31 27 28 31 33 32 29 28 27 25 24 24 24 23 21 19 19 17 16 16 15 14 15 16 16 15 15 15 17 19 20 21
9 9 10 11 12 13 14 15 16 17 19 20 22 23 25 26 27 29 30 30 30 31 31 32 32 30 28 28 27 27 27 28 30 32 33 34 34 35 36 37 35 33 35 37 34 32 34 35 33 32 32 34 32 28 27 29 33 34 32 29 28 27 25 24 23 22 22 20 20 19 18 17 16 16 17 17 18 17 16 16 16 17 19 20 21
7 8 9 10 11 13 14 14 15 16 17 18 19 20 21 22 24 26 28 29 30 30 29 29 29 28 26 26 26 26 28 29 30 31 33 34 34 35 38 39 34 29 32 36 33 33 35 33 32 31 31 34 34 30 28 30 34 33 31 30 28 26 24 22 22 21 20 20 19 19 18 17 17 18 19 19 19 19 17 17 17 17 18 20 21
7 8 10 11 12 13 14 15 15 16 17 17 18 19 19 20 22 23 24 26 27 27 27 26 26 24 24 24 25 25 27 29 30 31 33 34 35 37 39 38 32 26 29 33 32 34 35 34 33 32 31 33 35 33 31 32 34 33 31 30 28 25 23 22 21 20 19 19 19 18 18 18 18 19 20 20 20 20 19 17 17 18 17 18 20
8 10 11 12 13 13 14 15 16 17 18 19 19 19 20 21 21 22 23 23 24 25 25 25 24 23 23 23 24 25 26 28 29 30 32 33 34 34 33 34 33 29 28 28 29 33 36 34 32 32 33 36 35 33 33 34 34 33 32 30 27 24 23 22 21 19 19 18 18 18 18 18 19 20 21 21 21 20 20 18 18 18 17 18 19
10 11 12 13 14 14 14 15 16 18 19 20 20 20 21 21 21 22 22 22 23 23 24 24 23 23 23 22 23 24 25 27 28 28 30 31 31 29 31 35 36 30 24 24 27 33 35 32 31 32 35 36 33 32 35 36 34 32 31 29 26 24 23 22 20 19 18 18 18 18 18 19 19 20 21 21 21 21 21 20 18 17 17 17 19
12 13 14 15 15 15 15 16 17 17 18 19 20 20 20 20 20 21 21 22 22 23 23 23 22 22 22 22 23 23 24 26 27 28 29 28 28 30 34 37 35 28 23 24 26 31 34 34 35 35 34 33 32 33 35 35 33 32 30 28 26 24 23 21 20 19 18 18 18 18 19 19 20 21 22 21 20 21 22 22 20 18 16 16 19
13 14 15 16 16 16 17 18 18 18 18 19 19 19 19 19 19 19 20 21 21 22 22 23 23 23 22 22 23 23 23 24 26 27 27 26 28 30 31 36 36 28 23 23 25 29 33 36 37 35 32 31 32 33 34 33 32 31 30 28 26 24 23 21 19 19 19 19 19 19 19 20 21 22 22 21 21 21 22 22 21 20 18 17 17
14 15 16 16 18 19 20 20 20 19 19 18 18 18 18 18 18 18 19 19 20 21 21 22 22 22 22 23 24 24 23 23 25 26 26 26 29 30 29 35 38 29 21 23 27 29 32 34 34 32 31 32 33 34 34 33 31 30 29 27 26 25 23 21 19 19 20 20 19 19 20 20 21 22 21 21 22 22 22 22 21 20 20 19 17
15 15 16 17 18 20 21 21 20 20 19 18 17 17 17 17 17 17 17 18 18 18 19 20 20 20 21 22 23 23 23 23 23 24 24 24 28 30 30 34 36 29 23 26 28 29 31 32 31 31 32 34 35 35 34 33 32 31 29 27 26 25 23 21 20 20 21 21 20 20 21 21 21 22 22 22 22 22 22 22 21 21 21 21 19
15 15 16 17 18 19 20 20 20 20 19 18 17 16 16 16 16 16 16 16 15 15 15 15 16 17 19 19 20 20 21 22 22 23 23 23 25 28 29 32 33 29 26 28 28 30 31 31 31 32 33 35 35 34 33 33 32 31 29 28 27 26 24 22 22 22 22 21 20 21 21 20 21 22 23 23 22 22 22 22 22 21 21 22 22
15 16 16 17 18 19 19 19 19 19 18 18 17 17 17 17 16 15 15 14 14 13 12 12 13 14 16 16 17 18 19 21 22 23 23 22 23 25 27 30 30 27 27 29 29 30 30 30 31 33 35 36 35 34 33 33 33 31 29 28 27 26 24 23 23 23 22 21 21 20 20 20 22 23 23 23 23 23 23 22 22 22 22 22 22
16 17 18 18 18 19 19 19 19 18 17 17 17 17 17 17 16 16 15 14 13 13 12 12 13 14 14 15 16 17 18 19 20 22 22 22 22 22 24 27 27 26 27 28 29 30 29 30 31 33 35 36 35 35 35 35 33 31 29 28 28 26 25 24 25 24 22 21 20 20 20 22 23 23 23 23 23 23 23 22 22 23 23 22 22
18 18 19 19 20 20 19 19 19 18 17 17 17 17 17 17 17 16 16 15 14 14 13 13 14 14 15 15 16 17 17 17 17 18 19 19 20 21 23 25 25 26 27 29 30 30 29 28 30 33 35 35 35 35 35 34 33 31 29 28 27 26 25 25 25 24 22 22 21 20 22 23 22 22 22 23 24 23 23 23 23 24 23 23 22
19 19 20 21 21 21 20 20 19 19 19 18 18 18 18 17 17 16 16 15 15 15 14 14 14 15 15 16 16 17 17 16 15 15 16 16 18 21 25 26 26 28 29 30 31 30 28 28 30 33 34 34 34 34 34 33 31 29 28 28 27 27 27 27 27 25 23 22 22 22 23 23 22 21 23 24 24 24 23 24 24 25 25 24 23
20 21 21 21 21 20 20 20 20 20 20 19 19 18 18 18 18 17 16 15 14 15 15 15 15 15 16 17 17 17 17 17 17 17 17 17 19 23 26 27 28 30 31 31 31 30 29 29 31 33 34 34 33 33 32 31 30 29 29 28 28 28 28 29 28 26 24 23 23 23 23 22 21 22 23 25 25 24 24 24 25 25 25 25 25
22 22 21 20 19 18 18 19 20 20 20 19 19 19 18 18 18 18 17 15 15 15 15 15 15 15 15 16 17 17 17 17 17 17 17 18 20 23 25 28 31 32 33 32 31 31 31 31 33 35 35 34 33 33 32 31 30 30 29 29 29 30 30 30 28 26 25 24 24 24 23 22 21 22 23 24 25 25 25 25 25 26 25 25 25
22 21 20 19 18 18 18 19 20 21 20 20 20 20 19 19 17 17 16 15 15 15 14 14 14 13 13 14 15 16 16 17 18 18 18 20 23 26 29 32 34 33 33 33 32 31 32 33 35 36 36 35 34 33 33 31 30 30 29 30 31 31 31 30 28 27 26 25 24 24 23 22 21 22 23 24 25 26 26 26 26 26 26 25 24
22 21 20 19 19 19 19 20 21 21 21 21 20 20 19 18 17 16 15 14 14 14 13 13 13 13 13 14 15 16 17 18 19 20 22 24 27 30 32 33 32 31 32 32 32 32 33 35 36 37 37 36 35 34 33 32 31 30 30 31 31 31 30 29 28 29 28 27 25 25 24 23 22 23 24 24 25 26 26 26 26 26 26 24 23
21 21 20 19 18 18 18 19 19 20 20 19 19 18 17 16 15 14 13 13 12 12 12 13 13 13 14 14 15 17 19 20 22 23 25 27 28 29 29 28 28 29 31 33 34 34 34 35 37 38 38 37 35 34 34 32 31 31 31 32 32 30 30 30 31 31 30 28 27 26 25 24 24 24 24 25 26 26 26 26 27 27 26 24 23
21 20 18 17 16 16 16 16 17 17 16 16 15 14 13 12 11 11 10 10 9 9 10 11 11 12 13 14 16 17 19 21 22 23 23 24 24 24 24 25 26 28 31 33 34 34 34 35 36 37 37 36 35 34 34 33 33 33 32 32 32 32 32 33 33 33 32 30 30 29 28 27 25 25 25 25 25 25 25 26 27 27 27 25 23
20 18 16 16 15 15 14 14 14 14 13 13 11 10 9 8 7 7 6 6 6 6 7 7 8 9 10 12 13 15 16 18 19 19 19 19 20 21 23 24 26 28 31 33 34 34 34 34 34 35 35 35 34 33 34 34 34 34 34 34 34 34 34 34 35 36 35 33 32 31 30 29 27 25 24 24 25 25 25 26 27 27 27 25 24
19 17 16 15 14 13 13 13 12 12 11 10 9 8 7 7 6 5 5 4 4 4 5 5 6 7 8 9 10 11 13 14 15 16 17 17 18 19 20 21 24 27 29 31 32 33 34 34 33 32 33 34 33 33 34 35 35 36 36 35 35 36 35 36 38 39 36 34 34 33 32 30 26 24 23 24 25 26 27 27 27 27 26 24 23
18 16 15 14 13 13 13 13 12 11 10 9 8 8 7 7 7 6 6 5 5 5 5 6 7 7 8 9 10 10 12 13 14 15 15 15 16 16 16 17 19 22 25 27 29 31 32 33 32 31 32 33 33 34 35 36 37 38 37 37 37 38 39 40 41 40 38 36 36 35 33 29 25 23 24 26 27 27 28 28 27 26 25 24 23
17 16 15 14 14 14 13 13 12 11 11 10 9 9 8 8 7 7 6 6 6 7 7 8 9 10 10 11 12 13 14 14 14 14 13 14 14 15 14 14 15 17 21 23 26 29 30 32 32 32 33 34 34 35 35 36 37 38 39 39 40 41 43 43 42 40 39 37 36 35 32 28 26 26 27 28 28 29 28 28 27 26 25 24 23
17 16 15 15 15 14 13 13 13 12 12 11 10 9 9 8 8 8 8 8 8 9 10 11 12 13 13 14 15 16 16 17 16 16 15 15 15 16 16 16 15 16 18 20 23 26 29 31 32 33 35 36 36 37 37 37 38 40 41 43 44 45 45 44 42 40 38 37 36 34 31 29 29 30 30 30 30 29 29 28 27 26 25 25 24
17 16 16 15 15 15 14 14 13 13 12 11 10 10 9 9 9 9 9 10 10 11 12 13 14 15 16 17 17 18 18 19 19 18 18 18 18 18 18 18 17 17 18 19 21 24 27 30 32 35 37 38 39 40 41 41 41 43 45 46 47 47 46 44 42 41 39 38 37 36 35 34 33 33 32 31 30 30 29 29 28 27 26 26 26
17 17 17 17 16 16 16 15 14 13 12 12 11 10 10 10 10 10 11 11 12 13 14 15 16 17 17 18 19 19 19 20 20 20 20 20 20 20 19 19 19 19 19 19 20 23 26 29 32 35 38 40 42 43 44 44 45 46 47 48 49 48 46 45 45 43 41 39 39 39 38 37 35 34 34 33 31 29 29 29 29 28 27 27 27
18 18 18 18 17 17 16 15 15 14 13 13 12 12 11 12 12 12 12 13 14 14 15 15 16 17 17 17 18 18 19 19 20 20 21 21 21 21 21 20 20 20 20 20 21 23 25 28 31 34 37 40 42 44 45 46 46 47 48 49 49 48 48 47 47 44 42 41 41 41 40 39 38 36 36 34 32 30 29 30 29 28 28 28 27
18 18 18 18 18 17 16 15 15 14 13 13 13 13 13 13 12 13 13 13 13 14 14 14 15 15 15 15 15 16 17 18 18 19 20 21 21 21 21 21 21 21 21 22 23 25 26 28 30 33 35 38 42 44 45 45 46 46 48 49 50 50 49 49 48 45 44 44 43 43 42 41 40 38 37 35 33 31 31 30 30 29 28 28 27
18 18 18 18 18 17 16 15 14 13 13 13 12 12 12 12 12 12 12 12 12 12 12 12 12 13 13 14 14 15 16 17 18 19 19 20 21 22 22 22 22 22 22 23 26 27 28 29 30 31 33 36 38 40 42 44 45 46 48 49 50 50 50 50 48 47 47 47 46 45 44 42 40 38 38 36 34 33 32 31 30 29 28 28 28
19 19 18 18 17 16 15 14 13 13 13 12 12 11 11 10 10 10 10 10 10 10 11 11 12 12 13 13 14 14 15 16 17 18 19 19 20 21 23 23 24 24 24 26 28 30 30 31 32 32 33 34 36 37 38 40 42 45 47 48 49 49 49 49 49 49 49 49 48 46 45 44 42 40 39 38 36 33 32 30 29 29 30 29 28
20 19 18 17 16 15 14 14 13 13 12 11 10 10 9 9 9 9 9 9 9 9 10 10 10 11 12 13 14 15 15 16 17 17 18 19 19 20 22 23 24 25 26 28 30 31 32 33 33 33 34 34 35 35 36 38 40 42 44 46 47 47 48 48 49 49 50 50 49 48 47 45 44 42 40 39 36 33 32 32 31 31 31 30 29
20 20 19 18 17 17 16 15 14 13 11 10 9 9 8 8 8 8 8 8 8 9 10 10 10 11 11 13 14 15 16 17 17 17 17 18 18 19 21 22 23 24 26 28 30 31 32 33 33 33 34 34 34 34 36 37 38 39 42 43 44 45 46 47 48 49 49 50 50 49 47 45 44 42 40 38 37 35 34 34 34 33 32 30 29
21 20 19 18 18 17 15 14 12 11 10 9 9 8 8 8 8 8 8 8 8 9 10 11 12 13 13 14 14 15 16 16 16 16 16 17 17 19 20 21 22 22 24 25 27 29 30 31 32 32 32 33 33 34 34 35 36 37 39 40 41 42 43 44 45 46 48 50 49 48 46 44 43 41 40 39 38 38 37 36 35 34 32 31 30
18 17 17 16 15 13 12 11 10 9 9 8 8 7 7 7 7 7 8 8 8 9 10 10 11 12 13 14 15 14 15 15 15 15 15 15 16 17 18 19 20 21 22 23 24 25 27 28 29 30 31 32 33 33 33 34 35 36 37 38 38 39 39 40 41 43 45 47 47 46 45 44 42 41 41 40 39 38 38 38 37 35 33 32 31
17 16 15 14 13 12 11 10 9 8 7 6 6 6 5 6 6 7 7 8 8 9 10 10 11 12 12 13 14 14 14 14 14 14 14 14 15 15 16 17 18 19 20 20 21 23 24 25 26 27 28 30 31 32 32 33 34 34 35 36 36 36 37 38 39 40 41 43 44 44 44 43 42 42 42 41 41 40 39 39 38 36 35 34 33
18 16 15 14 12 11 10 8 7 6 5 5 5 5 6 6 7 7 8 8 9 9 10 10 10 11 11 11 12 12 13 12 13 13 13 14 15 15 16 17 17 18 19 19 20 21 23 23 24 25 26 27 29 30 31 32 33 33 34 34 35 35 35 36 37 37 38 39 40 40 41 41 41 41 41 42 42 41 40 40 39 38 37 36 35
16 14 13 12 10 9 8 6 5 5 5 5 5 6 6 7 7 7 8 8 8 8 8 8 8 9 9 10 11 11 12 12 13 13 14 15 16 17 17 18 19 20 21 21 22 23 24 25 25 26 27 28 29 29 31 32 33 34 34 35 35 35 35 34 35 35 36 37 37 38 38 39 40 40 40 40 40 41 42 42 41 39 38 37 35
14 12 11 9 8 7 6 5 5 5 5 5 5 5 6 6 6 5 5 5 6 6 7 7 8 9 9 10 11 12 13 13 14 14 15 15 16 17 18 19 20 21 22 22 23 24 25 26 27 28 29 29 30 30 31 33 34 35 35 36 36 36 35 35 35 35 36 36 37 37 37 38 39 39 39 38 38 40 42 43 43 41 38 37 35
11 10 9 8 7 6 5 5 4 4 4 4 4 4 4 3 4 4 5 5 6 6 7 8 9 10 11 11 12 13 14 15 15 16 16 17 18 18 19 20 21 22 22 23 24 25 26 27 28 29 30 30 30 31 32 33 34 35 36 36 37 37 37 36 35 35 36 37 37 37 37 36 37 38 38 37 38 39 42 43 44 41 39 37 35
10 9 8 7 7 6 5 4 4 3 3 3 3 2 3 3 4 5 5 6 7 7 8 9 10 11 12 13 14 15 16 17 17 18 19 19 20 21 21 22 23 24 24 25 26 26 27 28 29 30 31 32 32 32 33 34 34 35 36 37 38 38 38 38 37 36 36 36 37 37 36 36 36 37 37 38 39 40 41 43 43 42 40 38 36
9 9 8 7 7 6 5 5 4 3 3 2 2 3 3 4 5 6 7 8 8 9 10 11 11 12 13 14 15 16 17 18 20 20 21 22 23 24 24 25 26 27 27 28 28 28 29 30 31 31 32 32 33 33 33 34 34 36 37 38 39 40 40 39 38 37 36 36 37 37 36 36 36 37 38 38 39 40 41 42 43 42 40 39 37
9 8 8 7 6 6 5 4 4 3 3 3 3 3 4 5 6 7 8 9 9 10 11 12 13 14 15 16 17 19 20 21 22 23 24 25 26 27 28 28 29 30 30 30 30 31 31 31 32 32 33 33 33 33 33 33 33 35 36 37 38 40 40 40 38 37 36 36 37 36 36 36 36 37 38 38 39 39 40 41 42 42 41 39 38
8 8 7 6 6 5 4 4 3 3 3 3 4 5 5 6 7 8 9 10 11 12 14 15 16 17 18 19 20 21 22 24 25 26 27 29 29 30 31 32 32 33 33 33 33 33 33 33 33 33 34 34 34 33 33 33 33 34 35 35 37 38 39 39 38 38 37 36 36 36 36 36 36 37 37 37 37 38 39 39 40 41 41 39 37
8 7 6 5 5 4 3 3 3 3 4 4 5 6 7 8 9 10 11 13 14 15 16 17 18 20 21 22 23 24 26 27 28 29 31 32 33 33 34 35 35 36 36 36 36 36 36 36 35 35 36 36 35 35 35 34 34 34 34 34 35 36 36 36 36 36 36 35 34 34 35 35 36 36 36 36 36 37 38 38 39 40 40 38 36
7 6 5 5 4 4 4 4 4 4 5 6 6 7 8 10 11 12 14 15 16 18 19 20 21 23 24 25 26 28 29 30 31 32 33 34 35 35 36 36 37 37 37 37 37 37 36 36 36 36 36 36 36 36 36 35 34 34 34 34 34 34 34 35 35 35 35 34 33 33 34 35 35 35 36 35 36 37 38 38 38 38 38 37 36
6 6 5 5 5 4 5 5 5 6 6 7 8 10 11 13 14 16 17 18 19 20 22 23 24 25 27 28 29 30 31 33 34 34 35 35 36 36 36 37 37 37 37 37 36 36 36 36 35 35 36 36 36 36 36 35 34 34 33 33 33 33 34 34 35 36 36 35 34 33 34 35 35 34 34 35 35 36 37 38 37 37 37 37 35
6 6 5 5 5 5 6 6 7 8 9 10 11 13 14 16 17 18 20 21 22 23 24 26 27 28 29 30 31 33 33 34 35 35 35 35 36 36 36 36 35 35 35 35 35 35 35 35 35 35 34 34 34 34 33 32 32 32 32 31 31 32 33 34 35 35 35 35 35 35 35 35 35 33 33 33 34 36 37 37 36 35 36 35 34
6 6 6 6 6 7 8 9 9 11 12 13 14 16 17 18 20 21 22 23 24 25 27 28 29 30 31 32 33 33 34 34 34 34 34 34 34 34 33 33 33 33 33 33 33 33 33 33 33 33 33 32 32 31 30 30 30 30 30 29 29 29 30 32 34 34 34 34 35 35 35 35 34 32 31 32 33 35 36 36 35 34 35 34 33
Wind_Direction
256 258 261 265 268 271 272 272 271 269 268 266 265 264 261 257 253 251 250 251 253 255 256 256 257 258 256 251 243 239 236 235 237 239 241 244 245 246 247 246 245 244 245 249 249 244 245 247 248 251 252 248 248 253 248 232 222 219 216 215 218 223 225 226 230 235 240 243 241 241 244 249 255 264 274 282 286 291 296 300 304 309 311 312 313
257 261 264 268 270 271 270 268 266 265 264 264 263 262 261 258 255 252 251 250 251 254 257 259 262 261 256 252 245 240 237 235 235 238 240 243 245 246 247 246 245 245 247 248 246 244 250 253 252 254 252 249 252 251 241 228 221 216 215 217 220 224 226 226 229 234 239 244 246 246 248 253 259 267 273 279 284 289 294 298 304 309 310 312 314
257 262 265 266 268 268 267 268 268 267 266 266 266 264 262 260 258 257 256 255 254 255 257 261 265 265 260 257 251 244 238 236 236 238 240 242 244 246 246 244 245 251 249 245 245 251 254 251 253 256 252 250 251 246 238 229 219 214 216 219 221 225 227 227 230 234 239 244 248 252 253 256 262 270 276 281 285 288 292 298 303 307 310 313 315
256 262 266 269 271 273 275 276 275 275 273 272 272 271 269 266 263 261 259 259 259 259 258 259 262 265 264 260 254 245 240 238 237 238 241 243 245 248 247 243 245 255 251 245 249 254 252 253 260 260 250 246 248 246 241 227 215 214 218 220 223 226 228 229 232 236 241 246 251 255 257 261 267 272 278 282 284 287 292 297 301 305 311 314 315
258 266 269 273 277 279 282 284 282 282 280 278 277 275 273 272 268 265 263 262 261 261 260 258 259 261 262 259 253 246 243 241 239 239 241 241 244 249 249 244 245 252 251 250 255 255 253 259 262 255 248 250 250 247 238 224 215 216 220 221 225 227 228 232 235 239 244 248 253 257 261 266 271 274 278 281 284 288 293 297 300 304 310 312 312
260 268 272 276 281 282 285 287 287 288 287 285 284 281 279 277 274 272 269 267 264 261 257 255 253 253 254 255 253 248 245 243 242 243 242 241 244 249 249 247 247 249 250 253 256 253 253 255 254 251 254 257 253 243 231 221 217 219 222 223 226 227 230 234 238 243 247 248 252 258 263 267 271 274 278 281 284 289 292 294 298 303 308 310 309
263 271 278 281 284 288 290 291 292 292 291 290 289 287 286 284 281 278 274 271 268 263 258 254 250 249 248 248 250 250 248 247 248 250 249 246 247 250 253 250 245 243 250 261 261 255 253 254 258 263 263 256 246 233 223 219 220 222 224 226 227 228 231 235 240 246 249 250 254 258 262 267 271 275 278 281 286 289 291 292 295 299 304 307 307
268 274 279 283 287 290 292 293 294 293 292 291 289 289 290 288 286 283 278 274 270 266 262 256 250 247 246 244 245 247 248 249 250 251 253 253 249 252 256 249 241 243 254 260 260 256 255 260 265 268 262 248 233 224 220 220 223 224 225 227 228 230 233 237 242 246 249 252 255 257 262 267 272 276 279 283 286 289 292 294 296 298 302 305 306
272 277 282 286 289 291 291 292 294 294 293 292 290 289 288 287 285 282 278 276 271 268 264 259 251 246 244 244 245 245 247 249 248 248 252 253 250 253 257 249 242 244 250 254 260 260 261 264 263 261 252 236 223 218 218 222 225 226 228 230 231 233 235 238 243 246 249 251 253 257 263 270 275 279 281 284 288 290 292 294 297 300 304 307 308
271 276 282 286 288 290 291 292 293 292 292 291 288 286 284 283 282 280 278 276 272 269 265 261 256 249 245 245 244 244 246 247 248 251 254 254 250 253 260 253 243 240 249 262 270 270 269 268 262 253 242 227 217 216 218 221 225 228 230 232 233 235 237 241 245 247 249 251 253 260 268 275 278 281 284 287 290 291 291 292 296 300 304 307 309
271 276 281 285 285 287 289 289 290 290 290 288 285 283 282 281 281 281 280 279 276 273 269 265 260 252 250 251 248 246 247 246 249 255 258 258 253 253 261 256 243 241 256 268 272 273 273 269 258 246 233 221 216 217 219 222 226 229 231 234 235 237 240 244 247 248 249 252 256 264 273 278 280 282 286 289 291 291 291 293 296 300 303 306 309
268 274 277 280 281 284 285 285 286 286 287 288 286 285 285 284 284 282 281 281 279 276 272 269 264 256 254 256 256 254 250 247 252 259 262 264 261 258 261 254 242 245 260 269 272 274 271 264 252 239 227 220 218 220 222 225 228 231 234 236 237 239 242 246 249 249 250 253 261 270 276 279 281 284 288 290 292 292 291 293 296 300 303 305 308
264 269 273 277 279 281 282 280 280 281 283 286 288 288 288 286 285 284 281 280 279 274 268 264 264 264 261 260 262 263 258 255 258 261 263 266 266 263 258 248 242 252 266 271 275 275 268 259 247 234 224 221 221 223 225 228 231 233 235 238 240 242 244 247 249 249 250 256 265 273 277 279 282 286 289 291 292 291 292 294 297 299 301 303 306
260 266 271 276 277 277 277 274 274 275 278 282 284 285 286 285 283 282 278 276 274 271 266 259 257 261 265 265 265 266 266 266 266 266 266 267 268 264 255 246 250 266 274 275 276 273 266 256 243 231 225 224 225 227 229 231 234 236 238 240 243 244 246 248 248 249 252 258 265 270 275 280 284 287 290 291 291 291 292 294 295 296 299 301 304
258 266 271 275 276 276 274 271 270 271 273 276 279 281 282 282 281 279 276 273 269 266 263 256 251 252 255 259 260 260 263 265 267 269 269 267 266 260 249 249 261 275 278 278 276 272 263 251 239 232 229 230 232 233 233 235 237 239 241 244 246 247 248 248 248 249 253 258 263 269 276 282 284 286 289 291 291 291 292 293 294 295 298 299 301
259 267 273 277 277 276 272 268 267 268 269 271 273 276 278 279 279 277 275 275 272 268 262 255 250 248 250 255 258 260 261 262 264 269 270 267 262 254 249 255 268 277 279 279 276 270 260 246 238 234 234 236 237 237 238 239 240 241 244 247 248 248 248 247 247 249 253 259 264 270 276 280 281 285 289 291 291 291 292 293 294 295 297 299 300
259 268 275 278 277 273 268 265 264 264 267 268 269 272 274 276 278 277 275 272 268 264 260 256 254 250 250 254 257 260 261 261 262 267 268 265 259 255 256 263 272 280 281 278 275 270 260 248 241 239 239 239 240 240 240 241 241 243 246 248 249 248 247 246 247 250 254 259 264 270 274 276 279 285 289 290 290 291 291 291 292 294 296 298 299
261 270 275 273 269 264 260 259 259 261 263 265 267 268 269 270 273 274 275 273 268 262 258 255 254 253 252 252 254 256 257 258 260 263 267 268 266 265 268 273 277 281 281 278 274 269 262 252 245 243 243 242 242 242 242 242 243 245 248 250 251 250 248 248 249 252 256 258 264 270 271 273 279 286 288 289 289 291 290 288 290 292 294 296 298
262 268 267 262 259 258 255 253 254 256 259 262 264 267 269 270 271 273 276 276 274 270 267 263 260 259 258 257 257 258 259 261 263 265 268 270 270 271 274 275 275 276 277 277 275 271 265 257 249 245 244 243 243 243 243 243 245 248 251 252 253 253 251 250 251 254 257 260 264 267 269 273 280 284 286 287 289 289 288 287 288 291 292 294 296
260 259 255 254 254 256 254 252 254 255 257 261 264 267 271 274 276 278 279 280 279 279 279 277 274 271 266 263 261 261 262 262 262 262 262 263 267 271 274 273 272 273 275 276 277 274 269 261 254 248 245 243 242 244 245 245 247 250 253 254 256 256 253 251 253 255 258 260 262 264 268 273 278 281 284 286 286 285 286 287 288 289 290 292 294
252 248 249 251 253 254 254 255 257 258 261 264 267 270 274 276 278 281 283 286 288 289 288 287 287 285 280 275 270 267 267 268 267 266 265 265 268 272 274 275 275 276 278 277 276 275 271 266 258 252 248 245 245 245 247 248 250 252 254 256 257 255 252 251 253 255 257 260 263 265 268 272 275 280 283 283 282 282 284 286 287 288 288 290 292
243 241 244 246 248 251 253 256 258 261 265 267 269 272 275 276 278 281 284 288 292 294 296 296 296 294 290 287 282 277 276 278 278 278 276 275 275 275 277 279 281 282 281 280 280 279 276 272 264 257 253 250 250 250 252 252 253 255 256 258 257 254 251 251 253 256 259 261 263 265 267 271 276 281 281 279 279 280 283 286 286 286 286 288 290
234 235 237 238 242 246 249 254 258 260 262 264 264 265 265 264 266 266 269 276 281 289 294 296 297 296 294 292 289 287 286 286 287 286 284 282 280 278 279 282 284 283 282 282 282 281 279 275 269 263 258 256 255 256 257 257 258 259 259 259 258 255 252 252 256 258 259 259 261 263 267 272 277 280 278 276 277 279 282 283 283 282 284 286 289
227 228 228 231 236 242 248 253 255 256 255 252 250 245 238 234 234 234 236 242 250 263 274 280 285 289 291 292 292 293 293 292 291 290 286 283 280 279 279 280 281 281 281 281 280 278 276 273 270 266 263 261 260 260 261 261 261 261 261 261 260 257 254 254 257 258 258 259 261 264 268 273 277 276 273 273 275 278 279 279 279 280 282 285 287
220 220 223 229 235 241 247 250 250 248 242 235 230 222 217 219 223 227 232 238 246 255 262 269 274 277 282 286 288 290 291 290 289 288 288 288 287 285 282 280 279 280 281 280 278 275 273 271 269 265 263 262 262 262 262 262 263 263 263 263 261 259 257 256 257 258 259 261 263 266 270 274 273 270 268 271 274 276 276 276 277 279 281 283 286
215 218 223 228 232 238 242 243 239 231 224 219 215 212 214 220 228 235 242 247 253 259 263 269 274 278 282 285 286 287 287 287 288 288 288 289 287 283 280 277 275 277 279 279 277 274 272 269 266 262 260 259 260 261 262 263 264 265 264 263 260 259 256 255 256 258 261 263 264 267 271 272 267 265 266 270 273 273 273 274 276 278 280 281 284
214 219 221 223 228 232 232 228 221 216 214 213 213 216 221 227 235 245 253 259 265 270 274 279 283 285 288 288 288 288 288 288 290 291 290 288 284 279 275 271 267 267 269 272 272 271 269 267 264 261 259 257 257 258 258 259 260 260 260 259 258 257 256 255 257 259 261 263 264 267 268 266 263 263 266 269 271 270 270 272 274 276 277 279 281
214 217 218 221 223 222 219 214 211 212 216 218 220 226 232 239 247 256 264 271 277 281 284 286 287 288 288 289 289 290 290 290 291 292 292 290 287 284 280 275 269 264 261 262 265 266 267 266 264 261 259 257 257 256 256 256 256 256 256 257 256 257 257 257 258 259 261 262 263 265 266 264 262 263 264 267 268 267 268 270 271 272 274 276 279
212 214 217 219 218 214 212 210 212 218 222 225 230 234 240 248 256 262 269 274 278 281 283 285 286 289 291 293 295 296 296 296 296 295 295 293 292 290 286 280 275 270 265 263 263 264 264 264 263 262 260 259 259 258 257 257 256 256 256 257 257 258 259 259 260 261 263 264 264 266 266 265 262 261 263 265 265 264 265 267 268 269 272 274 277
211 214 216 216 213 212 212 213 217 223 226 231 236 241 247 253 258 263 269 272 276 278 281 284 286 289 293 295 297 297 296 297 297 297 297 296 295 292 289 284 280 275 270 267 266 264 263 262 262 262 262 262 262 261 261 260 259 258 259 259 260 261 262 263 264 265 266 266 265 265 265 264 261 261 263 264 263 262 263 264 265 267 269 272 275
210 213 215 213 211 213 215 216 221 226 231 237 242 246 251 255 259 265 269 273 277 281 283 285 287 289 291 293 294 294 295 295 295 294 294 294 293 290 287 283 280 276 273 271 269 266 264 263 263 263 264 264 265 264 264 263 262 262 263 263 263 264 264 265 266 267 268 268 266 264 263 262 261 261 262 262 262 261 260 259 260 264 268 270 272
207 210 212 212 212 215 218 221 224 229 235 241 245 249 254 258 263 269 272 275 279 282 284 287 288 288 290 291 291 292 294 294 294 294 294 293 293 290 287 284 281 277 275 273 271 269 267 266 267 268 268 269 269 269 268 267 266 266 265 265 265 264 265 266 267 267 268 269 268 265 264 263 263 263 263 262 261 258 256 256 259 264 268 268 270
204 207 209 211 214 216 220 223 227 230 235 239 243 248 254 260 266 270 273 274 275 276 278 282 285 287 290 292 293 294 295 294 295 296 296 295 294 292 289 286 283 280 276 274 273 272 271 270 271 271 272 272 273 274 273 271 270 269 268 267 268 268 268 269 269 268 269 270 270 269 267 266 265 264 263 262 261 258 256 258 263 266 267 267 267
201 203 205 208 211 213 216 219 220 223 226 229 234 241 246 252 257 260 264 267 270 273 276 279 284 288 291 294 295 297 299 299 299 300 300 299 297 294 291 289 286 283 281 279 279 279 277 276 276 276 277 278 279 278 277 276 275 274 274 273 273 273 273 272 271 271 272 272 273 273 272 269 268 267 265 264 263 260 258 260 264 266 266 267 267
198 200 201 203 205 206 208 210 210 213 216 218 223 229 234 241 248 252 259 265 270 274 278 281 284 288 291 294 296 299 301 302 304 306 306 305 302 298 295 293 292 290 287 287 287 287 286 285 285 285 285 284 284 282 281 280 279 279 278 278 277 277 276 275 274 273 273 273 273 274 274 272 270 270 268 266 264 260 258 259 262 265 266 267 267
197 199 199 200 202 202 203 203 203 205 208 211 216 222 228 237 246 252 260 266 272 278 283 286 288 290 293 295 299 301 303 304 307 308 308 308 306 303 301 301 300 297 294 293 293 293 292 292 292 292 291 290 288 287 285 284 283 282 282 281 280 279 278 278 277 277 275 274 274 274 274 273 272 271 269 268 264 260 257 258 260 263 264 264 263
197 197 196 196 195 195 196 197 197 201 205 209 217 225 234 244 254 263 271 278 283 288 290 292 294 295 295 295 297 300 303 306 310 312 312 312 311 309 309 308 307 305 304 303 301 299 297 297 297 296 295 294 293 292 290 289 288 286 286 285 284 283 282 282 281 279 277 276 275 274 275 275 275 272 270 268 265 260 258 258 259 260 262 262 260
187 185 185 185 184 185 189 191 195 202 208 215 227 240 253 266 277 286 292 296 299 300 299 299 299 299 300 300 301 303 306 309 312 314 316 319 319 318 317 316 315 314 313 312 309 305 303 302 300 298 297 295 294 293 292 291 291 290 289 288 288 287 286 285 283 282 280 279 278 277 276 276 276 274 271 268 265 261 259 259 259 259 259 258 257
177 177 177 178 180 184 189 194 201 213 224 240 257 270 280 287 292 297 299 301 303 303 303 303 302 302 305 307 307 309 312 314 314 315 317 320 321 322 323 322 321 321 320 318 316 313 310 308 306 303 299 297 295 293 292 291 290 290 290 289 289 288 287 286 285 284 283 282 281 280 278 276 276 276 273 270 266 263 260 259 259 258 257 257 257
174 175 177 179 183 188 195 203 218 234 249 263 273 280 284 286 289 292 293 297 301 303 305 307 307 309 312 313 314 316 318 319 320 321 321 321 322 322 323 323 322 322 321 319 318 316 313 312 310 307 304 302 299 296 295 293 291 290 288 287 287 286 286 285 285 284 284 283 283 282 280 278 278 277 274 272 269 266 263 260 258 257 256 256 256
175 178 180 183 187 192 201 213 227 240 252 262 267 272 276 279 283 287 291 297 303 306 310 312 314 315 317 317 318 319 320 321 323 324 323 323 322 321 321 321 320 319 318 317 316 314 311 309 307 305 304 302 299 297 295 293 290 289 288 287 286 285 284 283 282 283 283 284 284 284 283 282 280 278 277 276 273 269 265 261 257 255 254 253 252
176 179 179 180 184 189 200 209 217 226 237 246 249 257 267 274 283 291 298 303 308 310 311 314 316 317 318 317 318 318 319 320 320 320 320 320 319 318 317 316 315 313 312 311 309 306 304 303 301 300 299 298 296 295 293 291 290 289 288 287 286 286 284 283 281 281 282 283 283 284 283 283 282 281 280 278 275 271 267 263 258 254 252 251 250
173 175 175 177 181 185 191 195 199 205 214 221 233 253 270 283 293 301 306 307 309 312 312 313 314 314 314 315 315 316 317 317 317 317 317 316 315 314 313 311 310 308 307 306 304 302 300 299 298 297 296 294 293 291 290 289 288 288 287 286 286 286 286 284 283 281 281 281 281 282 282 282 282 281 280 277 274 272 269 264 258 253 251 250 249
171 172 172 172 173 171 174 177 180 189 202 217 242 263 280 292 299 303 306 307 308 309 309 309 310 310 311 312 312 313 313 314 314 314 314 313 312 312 311 309 308 307 305 304 302 301 299 298 296 295 294 293 291 289 288 287 285 284 284 285 285 285 285 285 284 284 283 282 280 280 280 280 280 279 278 276 274 272 270 265 258 253 249 248 247
167 167 164 164 163 164 169 175 182 198 219 242 263 276 288 296 299 301 303 304 304 305 305 306 307 308 308 309 310 310 311 311 311 312 312 312 311 310 309 308 307 305 304 303 301 299 298 297 295 295 294 293 291 290 289 287 285 283 282 281 281 282 283 283 283 283 282 281 280 278 276 275 275 274 274 275 275 273 271 267 260 253 249 246 245
164 164 163 165 168 171 179 192 205 226 247 265 279 286 290 294 296 298 299 300 301 302 304 304 306 306 307 307 308 308 309 310 310 311 310 310 309 308 307 306 305 304 303 302 301 299 298 296 295 294 293 292 292 291 290 288 287 285 283 282 281 281 281 281 281 281 280 279 278 277 274 272 270 270 271 272 273 272 269 265 259 253 249 247 246
168 170 171 175 180 187 200 215 231 250 263 271 279 284 288 291 293 295 297 298 300 302 303 303 304 305 305 306 307 308 308 309 309 309 308 308 307 307 306 306 305 304 304 303 302 301 300 299 298 297 296 296 295 294 293 292 291 289 288 286 285 284 283 282 281 280 280 280 277 275 273 271 268 266 267 268 268 267 265 261 256 252 248 246 245
176 179 182 187 194 205 217 229 240 253 262 269 277 283 287 291 294 296 297 299 300 301 302 302 303 304 304 305 306 306 307 307 307 307 307 307 306 306 306 306 305 305 304 304 304 303 302 301 300 299 298 297 296 295 294 293 291 290 289 288 287 286 284 283 281 280 279 278 276 272 271 269 266 264 263 264 264 264 262 258 254 250 247 245 244
185 188 192 200 208 217 228 239 248 259 267 274 281 286 290 293 295 296 297 298 299 299 300 301 301 302 303 304 304 305 305 306 305 305 305 305 305 305 305 305 305 304 304 303 303 302 301 300 299 298 297 296 296 295 294 293 291 290 289 289 288 287 285 283 281 279 278 276 274 270 268 267 265 262 261 261 261 261 259 256 252 249 246 244 242
195 198 205 216 226 235 245 254 262 270 277 282 287 291 293 294 295 296 296 297 297 298 299 299 300 301 302 302 303 303 304 304 304 304 304 304 304 305 305 304 304 304 304 304 303 303 302 302 301 301 300 299 299 298 296 294 293 292 291 291 291 289 287 285 282 280 278 277 275 272 268 266 265 261 259 258 259 258 255 252 249 247 245 243 241
210 217 225 235 242 251 261 269 275 280 284 288 290 292 293 293 294 294 295 295 296 297 298 298 299 299 300 300 301 301 301 302 302 302 303 303 303 304 304 304 304 304 304 304 305 305 305 305 305 305 305 304 303 302 301 299 297 295 294 294 292 291 290 288 287 284 281 279 277 274 270 267 264 260 256 256 256 255 252 250 247 245 245 243 240